QPF
0.03 0.03 0.04 0.07 0.09 0.10 0.11 0.11 0.10 0.10 0.12 0.13 0.12 0.14 0.12 0.12 0.15 0.16 0.16 0.16 0.16 0.16 0.16 0.16 0.14 0.11 0.09 0.08 0.09 0.06 0.05 0.04 0.04 0.04 0.05 0.05 0.06 0.07 0.06 0.07 0.08 0.06 0.05
0.02 0.02 0.05 0.07 0.09 0.10 0.14 0.12 0.08 0.08 0.10 0.11 0.12 0.12 0.10 0.11 0.13 0.12 0.11 0.12 0.14 0.13 0.14 0.15 0.12 0.09 0.07 0.07 0.08 0.05 0.03 0.04 0.04 0.05 0.05 0.06 0.07 0.07 0.06 0.08 0.09 0.08 0.06
0.02 0.03 0.05 0.07 0.10 0.12 0.13 0.11 0.10 0.10 0.09 0.09 0.11 0.11 0.09 0.10 0.13 0.13 0.11 0.12 0.16 0.14 0.14 0.13 0.10 0.08 0.06 0.08 0.07 0.04 0.03 0.03 0.06 0.07 0.10 0.11 0.08 0.07 0.07 0.07 0.08 0.07 0.06
0.03 0.03 0.05 0.07 0.09 0.11 0.10 0.10 0.10 0.10 0.08 0.09 0.11 0.12 0.10 0.10 0.14 0.16 0.13 0.13 0.17 0.16 0.15 0.13 0.10 0.08 0.07 0.09 0.09 0.06 0.05 0.05 0.07 0.11 0.16 0.18 0.12 0.06 0.06 0.07 0.05 0.05 0.07
0.03 0.02 0.04 0.04 0.05 0.06 0.06 0.08 0.10 0.09 0.07 0.10 0.14 0.15 0.14 0.14 0.16 0.17 0.13 0.14 0.17 0.16 0.16 0.14 0.13 0.09 0.10 0.09 0.08 0.06 0.05 0.04 0.06 0.12 0.14 0.14 0.13 0.06 0.05 0.06 0.06 0.05 0.06
0.02 0.02 0.03 0.05 0.04 0.05 0.07 0.09 0.09 0.10 0.10 0.11 0.14 0.16 0.13 0.13 0.16 0.16 0.15 0.16 0.15 0.14 0.14 0.13 0.12 0.11 0.09 0.08 0.07 0.07 0.04 0.04 0.07 0.13 0.14 0.12 0.10 0.05 0.04 0.04 0.04 0.03 0.04
0.01 0.02 0.02 0.09 0.08 0.06 0.08 0.06 0.08 0.08 0.10 0.13 0.14 0.11 0.13 0.17 0.22 0.23 0.21 0.20 0.15 0.14 0.11 0.10 0.09 0.09 0.06 0.04 0.06 0.05 0.04 0.06 0.08 0.11 0.11 0.09 0.07 0.04 0.04 0.04 0.03 0.02 0.03
0.01 0.03 0.03 0.05 0.08 0.10 0.09 0.08 0.08 0.08 0.10 0.17 0.21 0.11 0.12 0.23 0.29 0.28 0.25 0.20 0.15 0.12 0.10 0.08 0.06 0.06 0.04 0.03 0.04 0.04 0.03 0.05 0.05 0.06 0.08 0.06 0.03 0.02 0.03 0.04 0.04 0.04 0.04
0.01 0.04 0.05 0.09 0.16 0.19 0.17 0.14 0.14 0.13 0.13 0.21 0.26 0.15 0.13 0.14 0.17 0.18 0.17 0.14 0.11 0.11 0.09 0.08 0.06 0.05 0.04 0.03 0.03 0.03 0.02 0.04 0.04 0.05 0.05 0.05 0.02 0.01 0.02 0.04 0.04 0.04 0.03
0.02 0.03 0.03 0.04 0.10 0.14 0.15 0.15 0.17 0.15 0.18 0.20 0.19 0.17 0.13 0.12 0.11 0.11 0.10 0.09 0.10 0.09 0.07 0.05 0.05 0.04 0.04 0.03 0.03 0.03 0.02 0.04 0.04 0.05 0.05 0.04 0.01 0.01 0.01 0.02 0.03 0.03 0.03
0.02 0.02 0.03 0.03 0.04 0.08 0.12 0.15 0.18 0.20 0.23 0.21 0.17 0.18 0.15 0.18 0.14 0.11 0.08 0.07 0.07 0.06 0.06 0.04 0.04 0.04 0.04 0.03 0.03 0.02 0.02 0.03 0.03 0.06 0.06 0.03 0.01 0.01 0.01 0.02 0.03 0.03 0.03
0.01 0.03 0.02 0.02 0.02 0.06 0.08 0.11 0.18 0.21 0.23 0.20 0.19 0.19 0.19 0.19 0.21 0.13 0.08 0.06 0.07 0.06 0.05 0.04 0.04 0.04 0.05 0.03 0.03 0.03 0.03 0.02 0.02 0.04 0.04 0.01 0.01 0.01 0.01 0.03 0.04 0.03 0.03
0.00 0.01 0.02 0.03 0.03 0.04 0.06 0.07 0.10 0.17 0.19 0.15 0.16 0.16 0.14 0.14 0.15 0.12 0.10 0.11 0.12 0.08 0.06 0.05 0.05 0.06 0.05 0.06 0.05 0.03 0.03 0.01 0.01 0.02 0.03 0.01 0.01 0.01 0.01 0.02 0.03 0.03 0.04
0.00 0.00 0.01 0.02 0.04 0.05 0.05 0.06 0.06 0.08 0.09 0.09 0.10 0.12 0.10 0.12 0.13 0.12 0.14 0.13 0.12 0.10 0.11 0.09 0.07 0.05 0.03 0.03 0.03 0.03 0.02 0.01 0.02 0.03 0.05 0.02 0.01 0.01 0.01 0.02 0.01 0.02 0.03
0.00 0.00 0.01 0.02 0.04 0.05 0.06 0.06 0.04 0.06 0.05 0.04 0.05 0.09 0.07 0.08 0.09 0.10 0.10 0.11 0.10 0.08 0.07 0.08 0.05 0.04 0.03 0.04 0.04 0.04 0.03 0.03 0.04 0.05 0.06 0.02 0.01 0.01 0.01 0.01 0.01 0.02 0.02
0.00 0.01 0.02 0.03 0.03 0.04 0.06 0.05 0.05 0.04 0.03 0.03 0.08 0.05 0.06 0.07 0.08 0.07 0.08 0.10 0.08 0.06 0.05 0.05 0.05 0.05 0.06 0.06 0.05 0.04 0.03 0.03 0.04 0.05 0.05 0.03 0.01 0.01 0.01 0.01 0.02 0.03 0.03
0.01 0.01 0.01 0.02 0.02 0.04 0.04 0.03 0.02 0.02 0.01 0.02 0.05 0.03 0.05 0.06 0.07 0.06 0.07 0.08 0.08 0.05 0.04 0.05 0.05 0.05 0.06 0.06 0.05 0.04 0.05 0.03 0.04 0.03 0.04 0.06 0.05 0.03 0.03 0.01 0.02 0.04 0.05
0.01 0.01 0.01 0.01 0.02 0.03 0.04 0.04 0.02 0.02 0.03 0.05 0.05 0.04 0.04 0.04 0.05 0.07 0.08 0.06 0.05 0.04 0.05 0.06 0.07 0.07 0.07 0.06 0.05 0.04 0.04 0.03 0.03 0.02 0.03 0.05 0.07 0.07 0.04 0.02 0.02 0.03 0.04
0.01 0.01 0.01 0.03 0.03 0.02 0.03 0.04 0.04 0.04 0.05 0.04 0.05 0.05 0.05 0.03 0.03 0.07 0.08 0.08 0.05 0.05 0.06 0.06 0.08 0.08 0.09 0.07 0.04 0.04 0.03 0.03 0.04 0.02 0.03 0.04 0.05 0.06 0.07 0.05 0.03 0.03 0.04
0.00 0.01 0.02 0.02 0.02 0.04 0.04 0.04 0.04 0.04 0.05 0.04 0.05 0.06 0.04 0.03 0.02 0.05 0.07 0.06 0.05 0.06 0.08 0.09 0.12 0.10 0.09 0.07 0.04 0.08 0.05 0.04 0.03 0.04 0.04 0.04 0.05 0.04 0.05 0.07 0.07 0.03 0.03
0.00 0.01 0.01 0.02 0.03 0.05 0.05 0.05 0.05 0.06 0.06 0.06 0.05 0.02 0.02 0.03 0.03 0.04 0.07 0.08 0.06 0.07 0.08 0.07 0.10 0.12 0.10 0.07 0.09 0.10 0.06 0.03 0.03 0.03 0.04 0.04 0.06 0.05 0.04 0.07 0.10 0.09 0.06
0.00 0.00 0.00 0.01 0.02 0.03 0.04 0.05 0.06 0.06 0.05 0.06 0.05 0.06 0.04 0.04 0.04 0.04 0.06 0.07 0.09 0.10 0.08 0.09 0.11 0.14 0.13 0.10 0.10 0.14 0.12 0.11 0.08 0.05 0.05 0.04 0.04 0.05 0.05 0.05 0.09 0.11 0.08
0.00 0.00 0.00 0.01 0.02 0.03 0.03 0.03 0.05 0.06 0.07 0.07 0.06 0.08 0.05 0.03 0.03 0.05 0.05 0.07 0.09 0.07 0.13 0.14 0.14 0.14 0.14 0.12 0.09 0.14 0.15 0.17 0.14 0.08 0.05 0.05 0.06 0.07 0.07 0.07 0.06 0.08 0.08
0.00 0.00 0.00 0.01 0.01 0.01 0.02 0.03 0.05 0.06 0.07 0.08 0.07 0.09 0.08 0.05 0.03 0.04 0.04 0.08 0.09 0.09 0.13 0.11 0.14 0.15 0.15 0.13 0.15 0.13 0.11 0.14 0.15 0.14 0.09 0.07 0.07 0.07 0.07 0.07 0.07 0.07 0.11
0.00 0.00 0.00 0.01 0.02 0.02 0.02 0.03 0.04 0.05 0.07 0.07 0.06 0.11 0.08 0.06 0.04 0.04 0.05 0.08 0.08 0.09 0.09 0.11 0.16 0.14 0.12 0.12 0.13 0.14 0.13 0.15 0.13 0.15 0.14 0.12 0.09 0.07 0.07 0.07 0.08 0.08 0.09
0.00 0.00 0.01 0.02 0.03 0.03 0.02 0.02 0.03 0.04 0.06 0.06 0.07 0.07 0.05 0.06 0.04 0.03 0.04 0.08 0.08 0.08 0.08 0.09 0.12 0.11 0.12 0.13 0.12 0.12 0.13 0.14 0.15 0.17 0.16 0.13 0.11 0.08 0.06 0.06 0.07 0.09 0.10
MSLP
1008.70 1008.76 1008.99 1009.36 1009.78 1010.18 1010.49 1010.67 1010.74 1010.72 1010.70 1010.72 1010.82 1011.02 1011.30 1011.62 1011.94 1012.22 1012.45 1012.64 1012.81 1013.00 1013.22 1013.49 1013.79 1014.10 1014.39 1014.64 1014.85 1015.03 1015.18 1015.34 1015.51 1015.69 1015.88 1016.07 1016.24 1016.38 1016.50 1016.61 1016.71 1016.83 1016.97
1008.39 1008.63 1009.04 1009.55 1010.09 1010.55 1010.88 1011.04 1011.05 1010.98 1010.89 1010.86 1010.94 1011.14 1011.45 1011.80 1012.16 1012.48 1012.73 1012.94 1013.11 1013.28 1013.48 1013.72 1013.99 1014.28 1014.56 1014.81 1015.03 1015.22 1015.39 1015.56 1015.75 1015.95 1016.16 1016.36 1016.55 1016.70 1016.82 1016.92 1017.01 1017.11 1017.23
1008.11 1008.54 1009.11 1009.77 1010.41 1010.94 1011.29 1011.43 1011.41 1011.28 1011.13 1011.06 1011.11 1011.30 1011.60 1011.96 1012.33 1012.66 1012.92 1013.11 1013.28 1013.44 1013.62 1013.85 1014.11 1014.39 1014.67 1014.92 1015.15 1015.34 1015.53 1015.72 1015.92 1016.14 1016.37 1016.60 1016.80 1016.96 1017.09 1017.19 1017.28 1017.38 1017.49
1007.91 1008.47 1009.19 1009.96 1010.69 1011.28 1011.65 1011.80 1011.75 1011.60 1011.42 1011.32 1011.34 1011.51 1011.79 1012.13 1012.48 1012.79 1013.03 1013.21 1013.36 1013.51 1013.69 1013.92 1014.18 1014.47 1014.75 1015.01 1015.23 1015.43 1015.62 1015.81 1016.03 1016.27 1016.52 1016.77 1016.99 1017.17 1017.32 1017.43 1017.53 1017.63 1017.75
1007.77 1008.42 1009.22 1010.07 1010.86 1011.49 1011.89 1012.06 1012.03 1011.88 1011.71 1011.61 1011.63 1011.78 1012.04 1012.35 1012.66 1012.92 1013.13 1013.28 1013.41 1013.56 1013.74 1013.98 1014.26 1014.55 1014.84 1015.10 1015.31 1015.50 1015.67 1015.86 1016.08 1016.33 1016.60 1016.88 1017.13 1017.35 1017.52 1017.65 1017.77 1017.89 1018.02
1007.69 1008.37 1009.19 1010.07 1010.88 1011.53 1011.96 1012.17 1012.19 1012.09 1011.97 1011.91 1011.95 1012.10 1012.33 1012.61 1012.86 1013.08 1013.23 1013.35 1013.47 1013.61 1013.81 1014.07 1014.37 1014.68 1014.96 1015.20 1015.40 1015.56 1015.70 1015.87 1016.08 1016.34 1016.64 1016.94 1017.24 1017.49 1017.70 1017.86 1017.99 1018.13 1018.27
1007.67 1008.31 1009.10 1009.95 1010.75 1011.40 1011.86 1012.12 1012.20 1012.19 1012.15 1012.16 1012.25 1012.42 1012.64 1012.88 1013.09 1013.25 1013.35 1013.44 1013.54 1013.69 1013.91 1014.19 1014.51 1014.83 1015.11 1015.33 1015.49 1015.60 1015.71 1015.85 1016.05 1016.32 1016.64 1016.98 1017.32 1017.62 1017.86 1018.05 1018.21 1018.35 1018.51
1007.71 1008.27 1008.98 1009.76 1010.51 1011.15 1011.62 1011.92 1012.08 1012.16 1012.22 1012.32 1012.47 1012.68 1012.90 1013.12 1013.28 1013.39 1013.46 1013.52 1013.61 1013.77 1014.01 1014.32 1014.66 1014.98 1015.25 1015.44 1015.56 1015.63 1015.69 1015.80 1015.99 1016.27 1016.62 1017.01 1017.40 1017.74 1018.03 1018.24 1018.40 1018.55 1018.70
1007.81 1008.28 1008.89 1009.58 1010.26 1010.85 1011.32 1011.65 1011.87 1012.03 1012.19 1012.37 1012.59 1012.83 1013.06 1013.26 1013.39 1013.46 1013.50 1013.55 1013.64 1013.82 1014.09 1014.42 1014.78 1015.11 1015.36 1015.52 1015.59 1015.62 1015.64 1015.73 1015.91 1016.20 1016.59 1017.03 1017.47 1017.87 1018.19 1018.42 1018.59 1018.71 1018.84
1007.98 1008.37 1008.89 1009.49 1010.08 1010.61 1011.05 1011.38 1011.64 1011.85 1012.07 1012.31 1012.58 1012.84 1013.08 1013.27 1013.38 1013.44 1013.46 1013.51 1013.62 1013.82 1014.12 1014.48 1014.85 1015.18 1015.41 1015.54 1015.58 1015.56 1015.56 1015.62 1015.81 1016.12 1016.55 1017.04 1017.54 1017.99 1018.34 1018.59 1018.75 1018.86 1018.95
1008.23 1008.56 1009.02 1009.53 1010.04 1010.50 1010.88 1011.18 1011.43 1011.66 1011.90 1012.16 1012.44 1012.72 1012.96 1013.14 1013.25 1013.31 1013.34 1013.41 1013.54 1013.78 1014.10 1014.48 1014.86 1015.19 1015.41 1015.52 1015.53 1015.48 1015.45 1015.51 1015.70 1016.04 1016.51 1017.05 1017.60 1018.09 1018.48 1018.75 1018.91 1018.99 1019.05
1008.53 1008.85 1009.26 1009.72 1010.16 1010.54 1010.85 1011.09 1011.30 1011.49 1011.71 1011.95 1012.22 1012.49 1012.73 1012.91 1013.03 1013.10 1013.16 1013.27 1013.44 1013.71 1014.07 1014.46 1014.86 1015.18 1015.39 1015.47 1015.46 1015.39 1015.35 1015.40 1015.60 1015.95 1016.45 1017.03 1017.63 1018.16 1018.59 1018.88 1019.05 1019.11 1019.14
1008.83 1009.17 1009.58 1010.00 1010.38 1010.70 1010.94 1011.11 1011.24 1011.37 1011.53 1011.73 1011.96 1012.21 1012.43 1012.62 1012.76 1012.88 1012.99 1013.14 1013.37 1013.68 1014.06 1014.47 1014.87 1015.18 1015.38 1015.45 1015.41 1015.33 1015.28 1015.32 1015.51 1015.87 1016.37 1016.97 1017.60 1018.17 1018.64 1018.96 1019.14 1019.22 1019.23
1009.08 1009.46 1009.88 1010.29 1010.64 1010.91 1011.08 1011.18 1011.24 1011.30 1011.38 1011.52 1011.70 1011.92 1012.13 1012.34 1012.52 1012.69 1012.87 1013.09 1013.37 1013.72 1014.13 1014.55 1014.94 1015.24 1015.42 1015.47 1015.42 1015.32 1015.25 1015.27 1015.44 1015.78 1016.27 1016.86 1017.49 1018.08 1018.58 1018.94 1019.17 1019.27 1019.30
1009.22 1009.65 1010.09 1010.51 1010.85 1011.09 1011.22 1011.27 1011.27 1011.26 1011.28 1011.36 1011.49 1011.68 1011.89 1012.12 1012.35 1012.58 1012.84 1013.13 1013.47 1013.86 1014.28 1014.71 1015.08 1015.37 1015.53 1015.56 1015.49 1015.38 1015.28 1015.27 1015.39 1015.68 1016.12 1016.68 1017.28 1017.88 1018.39 1018.80 1019.08 1019.24 1019.31
1009.23 1009.68 1010.14 1010.57 1010.92 1011.16 1011.29 1011.32 1011.29 1011.25 1011.23 1011.26 1011.36 1011.52 1011.74 1012.00 1012.28 1012.58 1012.90 1013.26 1013.66 1014.08 1014.52 1014.93 1015.29 1015.55 1015.69 1015.71 1015.63 1015.49 1015.37 1015.31 1015.37 1015.58 1015.94 1016.42 1016.97 1017.53 1018.05 1018.49 1018.83 1019.06 1019.20
1009.10 1009.56 1010.03 1010.47 1010.83 1011.10 1011.26 1011.31 1011.30 1011.25 1011.22 1011.23 1011.31 1011.46 1011.69 1011.97 1012.29 1012.65 1013.04 1013.45 1013.89 1014.33 1014.77 1015.18 1015.52 1015.76 1015.89 1015.89 1015.80 1015.65 1015.49 1015.38 1015.36 1015.48 1015.73 1016.10 1016.56 1017.06 1017.56 1018.01 1018.40 1018.70 1018.93
1008.89 1009.33 1009.79 1010.24 1010.63 1010.93 1011.14 1011.26 1011.29 1011.28 1011.27 1011.28 1011.36 1011.50 1011.72 1012.01 1012.36 1012.76 1013.19 1013.64 1014.10 1014.56 1015.00 1015.39 1015.71 1015.94 1016.06 1016.07 1015.98 1015.82 1015.64 1015.49 1015.39 1015.40 1015.52 1015.76 1016.10 1016.50 1016.95 1017.39 1017.80 1018.17 1018.47
1008.68 1009.09 1009.52 1009.95 1010.36 1010.71 1010.99 1011.18 1011.29 1011.34 1011.37 1011.40 1011.48 1011.61 1011.82 1012.10 1012.45 1012.86 1013.31 1013.77 1014.25 1014.71 1015.14 1015.52 1015.83 1016.05 1016.18 1016.20 1016.13 1015.99 1015.81 1015.62 1015.46 1015.36 1015.36 1015.45 1015.65 1015.93 1016.28 1016.68 1017.09 1017.48 1017.84
1008.53 1008.89 1009.28 1009.69 1010.11 1010.50 1010.85 1011.12 1011.31 1011.44 1011.51 1011.57 1011.65 1011.77 1011.95 1012.20 1012.53 1012.92 1013.36 1013.82 1014.29 1014.75 1015.17 1015.54 1015.85 1016.08 1016.22 1016.28 1016.25 1016.14 1015.97 1015.77 1015.57 1015.39 1015.26 1015.22 1015.27 1015.41 1015.65 1015.96 1016.33 1016.73 1017.12
1008.48 1008.79 1009.13 1009.52 1009.93 1010.35 1010.74 1011.09 1011.36 1011.56 1011.69 1011.77 1011.85 1011.94 1012.08 1012.29 1012.58 1012.94 1013.35 1013.79 1014.25 1014.69 1015.10 1015.47 1015.77 1016.02 1016.19 1016.29 1016.31 1016.25 1016.12 1015.94 1015.71 1015.48 1015.26 1015.10 1015.01 1015.02 1015.13 1015.34 1015.64 1016.00 1016.38
1008.50 1008.78 1009.08 1009.43 1009.83 1010.25 1010.68 1011.09 1011.42 1011.68 1011.86 1011.96 1012.03 1012.09 1012.19 1012.35 1012.59 1012.90 1013.28 1013.70 1014.13 1014.56 1014.96 1015.32 1015.64 1015.90 1016.10 1016.23 1016.31 1016.31 1016.23 1016.08 1015.87 1015.61 1015.34 1015.09 1014.89 1014.78 1014.77 1014.88 1015.09 1015.39 1015.74
1008.55 1008.82 1009.09 1009.40 1009.77 1010.19 1010.64 1011.08 1011.46 1011.77 1011.98 1012.10 1012.16 1012.20 1012.26 1012.37 1012.56 1012.83 1013.18 1013.57 1013.99 1014.40 1014.79 1015.15 1015.46 1015.72 1015.94 1016.11 1016.23 1016.28 1016.26 1016.15 1015.98 1015.74 1015.45 1015.16 1014.90 1014.71 1014.61 1014.63 1014.76 1015.00 1015.30
1008.52 1008.80 1009.06 1009.35 1009.70 1010.11 1010.56 1011.01 1011.43 1011.77 1012.01 1012.14 1012.21 1012.23 1012.26 1012.34 1012.49 1012.73 1013.05 1013.43 1013.83 1014.23 1014.61 1014.95 1015.25 1015.50 1015.72 1015.90 1016.04 1016.13 1016.16 1016.11 1015.99 1015.80 1015.54 1015.26 1014.99 1014.77 1014.62 1014.58 1014.66 1014.84 1015.11
1008.32 1008.65 1008.92 1009.21 1009.54 1009.94 1010.39 1010.85 1011.29 1011.65 1011.91 1012.07 1012.14 1012.17 1012.18 1012.24 1012.38 1012.60 1012.90 1013.26 1013.66 1014.05 1014.41 1014.73 1015.00 1015.23 1015.42 1015.59 1015.73 1015.84 1015.90 1015.91 1015.85 1015.73 1015.54 1015.31 1015.08 1014.88 1014.74 1014.69 1014.74 1014.90 1015.14
1007.91 1008.30 1008.61 1008.91 1009.25 1009.65 1010.10 1010.57 1011.03 1011.41 1011.70 1011.88 1011.96 1012.00 1012.02 1012.07 1012.20 1012.41 1012.71 1013.06 1013.45 1013.83 1014.17 1014.46 1014.70 1014.89 1015.04 1015.17 1015.28 1015.39 1015.47 1015.53 1015.54 1015.49 1015.40 1015.27 1015.12 1014.99 1014.90 1014.88 1014.95 1015.11 1015.35
Thickness
5783 5781 5779 5778 5777 5776 5776 5775 5774 5773 5773 5772 5771 5771 5770 5770 5769 5767 5766 5765 5765 5764 5764 5763 5763 5762 5761 5761 5760 5760 5759 5759 5758 5757 5756 5755 5754 5753 5753 5752 5751 5750 5749
5786 5781 5778 5776 5775 5774 5774 5773 5773 5772 5771 5770 5769 5769 5769 5768 5767 5766 5765 5763 5763 5763 5762 5761 5761 5761 5760 5759 5758 5758 5758 5758 5757 5756 5755 5754 5753 5752 5751 5751 5751 5749 5747
5788 5782 5778 5775 5773 5773 5772 5771 5771 5770 5770 5769 5768 5768 5767 5767 5766 5765 5763 5762 5762 5761 5760 5760 5760 5760 5759 5758 5757 5757 5756 5756 5756 5756 5755 5753 5751 5750 5750 5750 5749 5747 5746
5789 5783 5778 5774 5772 5771 5770 5770 5769 5769 5768 5768 5767 5766 5766 5765 5764 5763 5762 5761 5761 5760 5759 5759 5758 5758 5757 5756 5756 5755 5755 5755 5756 5755 5754 5753 5751 5749 5749 5748 5747 5747 5746
5789 5782 5776 5774 5772 5770 5769 5769 5768 5767 5766 5766 5765 5765 5764 5764 5763 5762 5761 5760 5760 5759 5759 5758 5757 5757 5756 5755 5755 5755 5755 5755 5756 5756 5755 5753 5751 5749 5749 5748 5747 5746 5745
5789 5782 5776 5774 5772 5770 5768 5768 5767 5766 5765 5765 5764 5764 5763 5762 5762 5761 5760 5760 5759 5758 5758 5757 5756 5756 5755 5755 5755 5755 5755 5756 5756 5757 5756 5753 5751 5750 5749 5748 5747 5746 5745
5790 5783 5777 5773 5771 5769 5768 5767 5766 5766 5765 5764 5763 5763 5762 5761 5760 5760 5759 5759 5758 5758 5757 5756 5756 5755 5755 5754 5754 5755 5756 5756 5757 5757 5756 5754 5751 5750 5748 5747 5747 5745 5744
5791 5783 5777 5773 5771 5769 5768 5766 5766 5765 5764 5763 5762 5761 5760 5760 5760 5759 5758 5758 5758 5757 5757 5756 5755 5755 5755 5754 5755 5755 5756 5756 5759 5759 5756 5753 5751 5750 5748 5747 5746 5745 5744
5794 5786 5779 5775 5772 5770 5768 5766 5765 5764 5763 5762 5761 5760 5760 5759 5759 5758 5757 5757 5756 5756 5756 5755 5755 5754 5754 5754 5755 5756 5756 5757 5758 5759 5757 5753 5751 5749 5748 5747 5746 5745 5744
5795 5791 5785 5781 5776 5773 5770 5767 5765 5764 5763 5762 5761 5761 5760 5759 5759 5758 5757 5756 5756 5756 5756 5755 5755 5754 5754 5754 5755 5755 5756 5758 5760 5759 5756 5753 5751 5750 5748 5747 5746 5745 5744
5793 5792 5789 5785 5781 5778 5774 5769 5766 5765 5764 5762 5761 5760 5760 5760 5760 5758 5758 5757 5756 5756 5756 5755 5755 5755 5754 5754 5755 5756 5757 5759 5761 5759 5756 5753 5752 5750 5749 5747 5746 5745 5744
5791 5791 5791 5788 5785 5781 5777 5772 5769 5767 5764 5763 5763 5761 5761 5761 5761 5760 5758 5757 5757 5756 5756 5756 5755 5755 5755 5756 5756 5756 5758 5761 5762 5759 5756 5754 5753 5751 5749 5748 5746 5745 5744
5795 5793 5792 5789 5787 5783 5779 5775 5772 5771 5766 5765 5764 5763 5762 5762 5761 5761 5759 5757 5757 5757 5757 5756 5756 5757 5757 5757 5758 5759 5760 5762 5763 5761 5756 5755 5753 5752 5750 5748 5747 5746 5745
5797 5795 5794 5791 5787 5783 5781 5779 5776 5773 5770 5767 5765 5765 5764 5764 5763 5762 5760 5760 5760 5759 5759 5759 5759 5759 5760 5760 5761 5761 5762 5762 5763 5761 5757 5755 5754 5753 5751 5749 5748 5747 5745
5799 5796 5794 5791 5786 5783 5781 5780 5778 5775 5772 5770 5767 5766 5766 5766 5765 5763 5762 5762 5763 5762 5762 5761 5761 5761 5762 5762 5762 5763 5763 5764 5763 5761 5758 5756 5755 5754 5752 5750 5749 5747 5746
5802 5798 5796 5792 5788 5784 5782 5780 5779 5777 5774 5772 5769 5768 5768 5768 5767 5765 5764 5764 5763 5763 5763 5762 5762 5762 5762 5762 5762 5763 5764 5765 5764 5762 5760 5758 5756 5755 5753 5752 5750 5748 5747
5805 5802 5797 5794 5791 5786 5784 5782 5781 5779 5777 5774 5772 5770 5769 5768 5767 5766 5766 5765 5764 5763 5764 5763 5763 5762 5762 5762 5762 5763 5764 5764 5764 5764 5762 5760 5757 5755 5754 5753 5751 5749 5747
5810 5805 5801 5800 5793 5789 5786 5784 5783 5782 5779 5776 5774 5771 5770 5769 5768 5767 5766 5765 5765 5765 5764 5763 5763 5761 5761 5761 5761 5762 5764 5764 5764 5764 5763 5762 5760 5758 5755 5754 5752 5750 5748
5814 5808 5803 5801 5796 5792 5789 5786 5785 5783 5781 5779 5776 5773 5771 5770 5769 5767 5766 5766 5765 5765 5765 5765 5763 5761 5759 5759 5760 5761 5763 5764 5765 5765 5764 5764 5762 5761 5758 5755 5753 5751 5749
5819 5812 5806 5803 5799 5795 5792 5788 5785 5784 5782 5780 5778 5775 5773 5771 5770 5768 5767 5766 5766 5765 5764 5763 5761 5761 5760 5760 5761 5761 5763 5764 5765 5765 5765 5765 5764 5762 5760 5757 5754 5751 5749
5821 5814 5809 5804 5800 5797 5792 5787 5784 5781 5781 5781 5780 5778 5775 5773 5771 5769 5769 5767 5766 5765 5763 5763 5761 5759 5758 5760 5757 5755 5760 5764 5765 5765 5765 5764 5764 5763 5761 5759 5756 5753 5750
5824 5818 5812 5807 5803 5800 5796 5792 5789 5787 5784 5783 5782 5779 5777 5775 5773 5772 5769 5768 5767 5765 5763 5762 5761 5758 5757 5760 5755 5749 5747 5753 5760 5766 5764 5763 5763 5762 5761 5760 5758 5755 5753
5827 5822 5818 5812 5808 5804 5801 5797 5793 5789 5785 5783 5781 5779 5778 5776 5775 5773 5771 5770 5768 5766 5763 5762 5761 5757 5754 5758 5759 5752 5744 5742 5749 5758 5762 5763 5762 5761 5761 5760 5758 5756 5754
5834 5829 5823 5816 5811 5807 5804 5798 5793 5787 5783 5783 5783 5781 5780 5779 5777 5775 5773 5771 5768 5767 5764 5763 5763 5761 5757 5754 5757 5758 5756 5753 5745 5744 5752 5758 5760 5759 5759 5760 5758 5757 5754
5840 5834 5827 5820 5814 5810 5806 5802 5796 5792 5790 5789 5787 5783 5781 5779 5778 5777 5774 5771 5769 5767 5766 5765 5764 5762 5760 5757 5756 5756 5755 5754 5752 5744 5741 5747 5752 5756 5757 5758 5757 5755 5753
5844 5837 5830 5821 5815 5812 5808 5804 5799 5795 5793 5790 5787 5783 5781 5780 5779 5778 5776 5772 5770 5768 5767 5765 5764 5762 5760 5759 5758 5757 5754 5751 5749 5747 5743 5744 5745 5750 5754 5755 5754 5753 5751